Probability
0 1 2 3 2 1 1 0 0 0 0 0 0 0 0 0 0 0 0 0 0 0 0 0 0 0 0 0 0 0 0 0 0 0 0 0 0 0 0 0 0 0 0
0 1 2 3 3 2 2 1 0 0 0 0 0 0 0 0 0 0 0 0 0 0 0 0 0 0 0 0 0 0 0 0 0 0 0 0 0 0 0 0 0 0 0
0 0 1 2 3 3 3 2 1 1 1 2 2 2 1 0 0 0 0 0 0 0 0 0 0 0 0 0 0 0 0 0 0 0 0 0 0 0 0 0 0 0 0
0 0 1 1 2 2 1 1 1 1 2 3 4 4 2 1 1 0 0 0 0 0 0 0 0 0 0 0 0 0 0 0 0 0 0 0 0 0 0 0 0 0 0
0 0 0 0 0 0 0 0 0 1 1 2 3 3 2 2 2 1 1 0 0 0 0 0 0 0 0 0 0 0 0 0 0 0 0 0 0 0 0 0 0 0 0
0 0 0 0 0 0 0 0 0 0 0 0 1 1 1 2 3 2 2 1 0 0 0 0 0 0 0 0 0 0 0 0 0 0 0 0 0 0 0 0 0 0 0
0 0 0 0 0 0 0 1 1 0 0 0 0 1 2 3 3 2 2 3 2 0 0 0 0 0 0 0 0 0 0 0 0 0 0 0 0 0 0 0 0 0 0
0 0 0 0 0 0 0 1 1 0 1 1 1 2 3 4 3 2 3 4 3 1 0 0 0 0 0 0 0 0 0 0 0 0 0 0 0 0 0 0 0 0 0
0 0 0 0 0 0 0 0 0 0 1 2 1 1 2 2 2 2 3 3 2 1 0 0 1 1 0 0 0 0 0 0 0 0 0 0 0 0 0 0 0 0 0
0 0 0 0 0 0 0 0 0 0 1 1 1 1 2 1 1 1 1 1 1 1 0 1 2 2 1 0 0 0 0 0 0 0 0 0 0 0 0 0 0 0 0
0 0 0 0 0 0 0 0 0 0 0 0 0 0 1 0 0 0 0 0 1 1 0 1 2 2 1 1 1 0 0 0 0 0 0 0 0 0 0 0 0 0 0
0 0 0 0 0 0 0 0 0 0 0 0 0 0 0 0 0 1 2 1 0 0 0 1 2 1 0 1 2 1 0 0 0 0 0 0 0 0 0 0 0 0 0
0 0 0 0 0 0 0 0 0 0 0 0 0 0 0 0 0 1 3 3 1 0 0 1 2 1 0 1 2 2 1 0 0 0 1 1 1 0 0 0 0 0 0
0 0 0 0 0 0 0 0 0 0 0 0 0 0 0 0 0 1 2 2 1 1 2 2 3 2 0 0 1 2 1 0 0 0 1 2 1 0 0 0 0 0 0
0 0 0 0 0 0 0 0 0 0 0 0 0 0 0 0 0 0 0 0 1 3 3 3 2 2 1 0 0 1 1 1 0 0 1 1 0 0 0 0 0 0 0
0 0 0 0 0 0 0 0 0 0 0 0 0 0 0 0 0 0 0 0 1 3 4 3 1 2 3 1 0 0 1 1 1 0 0 0 0 0 0 0 0 1 1
0 0 0 0 0 0 0 0 0 0 0 0 0 0 0 0 0 0 0 0 1 2 3 3 2 3 3 2 0 1 2 2 1 0 0 0 0 0 0 0 0 1 2
0 0 0 0 0 0 0 0 0 0 0 0 0 0 0 0 0 0 0 0 0 1 1 3 4 4 4 4 3 2 2 2 1 0 1 1 0 0 0 0 0 1 2
0 0 0 0 0 0 0 0 0 0 0 0 0 0 0 0 0 0 0 0 0 0 0 1 4 6 6 6 4 3 2 2 1 1 1 1 1 1 1 1 0 1 2
0 0 0 0 0 0 0 0 0 0 0 0 0 0 0 0 0 0 0 0 0 0 0 1 3 5 6 5 3 1 1 1 2 2 2 2 3 3 2 1 1 1 1
0 0 0 0 0 0 0 0 0 0 0 0 0 0 0 0 0 0 0 0 0 0 0 0 1 3 5 3 1 0 0 0 1 2 3 3 3 4 3 2 2 3 2
0 0 0 0 0 0 0 0 0 0 0 0 0 0 0 0 0 0 0 0 0 0 0 0 0 1 3 3 2 1 0 0 1 1 2 2 3 4 4 3 3 3 2
0 0 0 0 0 0 0 0 0 0 0 0 0 0 0 0 0 0 0 0 0 0 0 0 0 1 2 2 3 3 2 1 2 2 1 1 2 3 4 4 4 3 2
0 0 0 0 0 0 0 0 0 0 0 0 0 0 0 0 0 0 0 0 0 0 0 0 0 0 1 1 2 3 3 2 3 3 1 1 1 2 3 4 6 5 5
0 0 0 0 0 0 0 0 0 0 0 0 0 0 0 0 0 0 0 0 0 0 0 0 0 0 0 0 1 2 2 2 3 2 2 1 1 1 2 4 7 9 9
0 0 0 0 0 0 0 0 0 0 0 0 0 0 0 0 0 0 0 0 0 0 0 0 0 0 0 0 0 1 2 3 2 2 2 1 1 2 2 5 9 11 10
Wind_Speed
5 6 8 5 6 6 5 5 5 4 4 4 4 4 4 4 3 3 2 2 1 1 1 1 1 1 2 2 2 2 2 3 3 3 3 3 3 3 3 2 1 4 7
5 7 8 5 5 4 3 2 3 2 2 3 3 3 3 3 3 3 2 2 2 1 1 0 0 1 1 2 1 1 1 1 2 2 1 2 3 2 2 2 4 5 5
5 6 7 5 4 3 2 1 0 0 0 1 2 2 3 4 4 4 3 4 3 3 2 2 1 1 0 0 1 1 1 1 1 0 4 3 4 4 2 2 3 4 4
6 5 6 6 4 3 1 0 2 2 3 3 3 3 4 4 4 4 5 5 5 4 4 3 3 2 2 1 1 1 1 1 0 3 5 0 1 6 1 1 2 3 4
6 5 7 5 4 3 1 1 1 2 4 4 5 5 5 5 5 5 6 6 6 5 5 5 4 4 3 2 2 2 1 1 2 7 1 1 1 4 1 1 1 2 3
7 5 6 4 4 3 2 1 1 1 3 4 5 5 6 6 6 6 6 6 6 6 6 6 6 6 5 4 3 2 2 2 6 3 1 1 0 4 0 1 1 1 3
6 5 6 5 4 3 4 4 3 2 2 4 5 5 6 7 6 6 6 7 7 7 7 7 7 7 6 5 4 3 3 3 6 3 3 2 2 2 1 1 1 1 2
6 5 5 6 5 5 5 5 4 4 3 3 4 5 6 6 6 5 5 6 7 8 8 8 8 8 7 7 6 5 4 7 6 4 3 2 3 0 2 2 2 2 2
5 4 4 3 3 3 3 5 5 5 4 4 4 5 5 5 5 5 5 6 6 8 8 8 9 9 8 7 6 5 5 4 7 4 4 2 4 2 3 2 2 3 3
4 4 3 3 4 3 2 4 5 5 4 4 3 4 5 5 6 6 7 5 6 7 7 7 7 8 7 7 7 6 5 7 8 6 4 2 3 2 3 3 3 4 4
3 3 3 4 4 4 5 4 3 2 2 4 3 2 6 6 5 6 5 3 5 7 7 7 7 6 6 7 7 7 7 7 5 5 4 5 1 4 4 4 4 4 5
2 2 3 4 4 5 4 4 4 4 3 4 4 4 5 4 4 5 2 5 5 6 7 7 7 7 7 5 6 7 6 7 6 5 3 5 3 5 5 5 5 5 5
2 2 3 4 4 5 4 4 3 3 3 4 4 4 4 4 3 4 3 4 5 6 6 5 7 6 5 4 4 5 6 5 4 4 3 6 5 6 6 6 6 6 6
1 2 3 4 4 5 5 4 3 3 3 3 4 5 4 3 4 3 3 3 3 3 3 4 4 5 6 6 7 7 6 5 5 3 3 6 5 7 7 6 7 7 7
1 1 3 4 6 6 5 4 4 3 3 4 3 4 5 4 4 4 3 3 4 3 3 4 5 5 5 6 6 6 7 7 7 6 3 6 6 7 7 7 7 8 9
0 1 2 3 5 6 5 4 4 4 3 4 4 5 5 4 4 4 4 3 3 3 3 4 5 5 5 4 6 6 6 7 7 7 5 6 8 7 7 7 7 8 9
1 1 2 3 5 6 6 6 4 4 4 4 3 5 5 5 5 4 4 4 3 3 4 4 4 4 4 5 6 6 6 6 7 8 6 5 6 9 8 8 7 8 9
1 1 2 2 4 5 5 5 4 4 4 4 4 4 5 5 5 4 4 4 4 4 3 3 3 3 4 4 5 5 5 5 8 7 6 7 6 5 8 9 8 7 8
1 0 1 3 4 5 5 4 4 4 3 4 4 4 5 5 5 4 4 4 4 3 3 4 3 3 3 4 4 4 4 4 5 6 7 7 6 6 5 8 8 7 7
2 1 1 2 3 4 4 4 3 3 3 3 3 4 5 5 5 5 4 4 4 3 3 3 3 3 3 3 4 4 4 4 5 5 6 5 5 7 6 5 7 8 9
3 2 1 3 3 3 3 3 4 3 3 3 3 4 4 5 5 4 4 4 3 3 3 3 3 3 3 2 2 3 4 6 5 4 5 5 5 5 6 6 6 5 7
4 2 2 2 3 3 3 4 3 4 3 3 3 3 4 5 5 4 4 3 2 3 3 3 3 3 2 2 2 2 3 4 5 5 5 4 5 5 6 7 7 7 6
5 3 2 2 2 2 3 3 3 2 2 2 3 3 4 4 4 4 5 4 3 3 2 3 3 3 3 2 2 2 2 2 2 4 5 5 4 4 5 5 7 7 7
5 3 2 1 2 2 2 3 4 4 4 4 4 3 4 3 4 4 4 4 3 3 2 3 2 3 3 2 2 2 3 2 2 2 3 3 4 5 5 4 5 6 7
5 3 2 1 2 1 2 2 4 4 4 3 3 4 4 4 4 3 4 3 3 3 3 3 3 3 3 3 2 2 2 2 4 2 2 2 3 3 3 4 4 4 5
5 4 3 2 1 1 2 3 3 4 4 4 4 4 4 3 3 4 4 3 3 3 3 3 3 3 2 3 2 2 2 2 2 2 2 2 2 1 2 2 3 3 4
Wind_Direction
145 138 117 145 146 151 155 157 154 154 156 163 165 166 168 171 171 174 174 174 171 146 104 70 103 86 88 89 84 76 66 62 75 71 57 64 73 79 81 83 278 98 72
133 128 114 129 130 131 135 144 149 155 169 183 187 190 192 198 201 201 207 216 213 209 215 257 37 108 81 73 75 64 46 47 70 72 36 161 115 83 80 63 356 56 71
116 118 125 109 101 98 95 51 69 122 263 257 247 237 232 229 228 223 229 234 235 236 238 246 249 213 164 23 31 3 358 2 58 62 259 231 129 108 85 80 66 75 77
109 108 100 95 93 87 75 354 313 333 328 318 308 298 280 264 255 249 245 247 246 247 247 250 249 242 241 265 302 320 340 345 303 259 241 340 112 103 94 85 90 93 84
107 102 91 87 82 71 47 331 313 315 308 305 306 306 296 290 280 272 265 261 259 259 257 257 257 252 248 250 268 286 299 302 267 258 290 343 41 93 86 99 100 109 105
104 98 91 79 75 53 5 356 335 311 292 293 296 297 299 299 296 291 286 277 267 263 262 260 256 255 251 248 253 270 281 277 256 256 268 261 114 96 87 110 126 128 122
100 94 88 69 52 36 359 351 348 324 301 290 281 274 282 292 298 300 293 288 282 273 268 266 260 257 248 247 244 252 263 272 267 270 253 250 70 72 283 199 190 169 144
87 81 81 80 54 33 10 360 352 338 328 308 300 280 270 272 280 283 288 286 285 278 273 271 268 261 251 242 240 241 250 271 249 253 251 252 74 294 260 228 217 204 184
90 81 64 57 81 89 47 15 2 353 341 325 303 286 278 275 284 284 282 282 281 278 273 273 270 262 250 240 238 237 243 259 273 260 251 218 101 269 262 237 227 221 208
95 78 61 36 17 3 21 53 7 352 344 331 315 301 287 264 249 253 257 261 278 279 274 271 272 266 250 239 236 233 236 240 244 250 249 135 112 269 259 237 225 228 214
96 70 52 28 21 3 348 22 341 343 354 288 255 253 264 261 259 243 249 261 272 275 275 273 271 268 261 236 231 231 230 242 233 250 251 90 174 262 260 241 225 223 214
94 60 34 19 12 2 351 348 331 325 327 307 314 304 288 283 273 273 207 230 250 260 256 253 255 251 246 235 214 217 230 230 239 234 196 127 240 252 254 240 223 219 211
73 45 19 7 7 355 347 338 336 324 319 304 315 310 299 293 270 260 253 218 228 236 245 227 233 236 235 234 241 235 238 242 239 239 179 151 230 248 246 236 223 218 209
58 26 13 355 354 354 348 344 323 324 324 321 320 316 305 300 292 286 271 273 262 245 244 251 247 238 237 234 232 242 235 234 242 244 176 158 229 246 242 231 225 218 211
94 18 15 354 354 353 353 329 326 333 330 329 326 314 314 300 294 291 281 276 273 267 246 246 248 239 239 241 240 242 248 238 240 233 194 172 221 243 243 233 227 220 213
140 29 29 358 360 346 342 334 340 335 323 322 326 320 319 309 297 295 284 278 277 272 270 260 250 241 236 233 242 244 250 250 246 238 235 190 202 226 238 237 229 222 214
98 38 36 358 351 346 342 341 333 327 327 326 328 321 321 312 303 299 294 288 287 281 273 267 262 248 237 230 232 238 239 246 248 242 234 234 207 201 217 228 228 224 216
152 43 35 349 342 347 341 329 329 332 331 325 329 326 321 317 310 303 294 291 290 284 277 263 256 246 240 237 237 233 237 230 239 240 236 224 224 214 197 203 215 218 216
176 120 357 350 339 342 337 322 325 326 326 325 328 332 326 325 318 309 303 298 292 282 278 271 254 254 246 240 242 234 240 237 236 231 234 232 222 222 214 171 193 207 209
189 215 346 336 332 338 328 325 331 323 322 330 333 335 331 324 324 317 301 299 300 281 276 272 266 253 256 246 246 240 232 237 236 229 235 234 236 229 220 200 197 194 199
195 228 306 315 342 337 336 329 329 330 329 336 340 343 328 324 324 318 307 310 302 289 283 275 267 253 244 247 248 242 230 229 232 223 228 231 228 233 222 209 219 209 189
201 226 274 309 337 342 341 325 321 321 319 336 328 332 336 333 327 314 311 303 300 289 280 279 268 265 251 225 239 241 224 209 217 218 215 225 233 222 230 223 214 209 219
208 217 251 301 319 336 333 321 313 305 285 315 338 339 337 332 328 320 319 313 308 295 296 287 276 266 264 239 232 245 247 232 202 200 208 210 218 226 226 231 228 220 217
202 206 234 259 302 329 314 323 330 325 338 345 334 334 329 335 337 329 320 315 316 312 302 286 283 273 269 259 234 245 269 309 264 196 194 202 212 224 230 225 231 230 228
189 196 218 238 276 309 311 324 307 326 339 337 334 339 336 353 347 342 330 322 321 316 314 306 293 278 267 270 261 245 249 255 265 260 215 200 211 218 227 234 235 235 238
184 191 205 226 246 264 282 300 313 329 328 333 342 346 338 348 349 1 338 326 323 323 316 305 290 273 273 273 270 260 253 253 257 259 255 246 247 246 246 241 242 239 241